Showing default

SPAWAR-CAL-O, 43766

Orbit data source: Space-Track

SPAWAR-CAL-O, 43766 is a payload satellite owned by SPAWAR (US) in SSO that was launched on Mon, 03 Dec 2018 UTC via an FALCON 9 launch vehicle from the Air Force Western Test Range (AFWTR). Payload-class satellites include a variety of spacecraft equipped with specific instruments for various scientific and technological missions. These include communications satellites like Starlink; space stations such as the ISS; scientific satellites like the Hubble; Earth observation satellites from companies like Planet Labs, Umbra, and HawkEye 360; GPS; miniature CubeSats for education and research; and military/defense satellites.

Loading next visibility...
Identifier
43766, 2018-099J
Orbit
SSO
Country
Flag of USUS
Related business
Manufacturer
SPAWAR?
Mission
Operational Defense Calibration
Bus & Motor
CUBESAT 1U, Unknown motor
Mass
1 kg wet, 1 kg dry
Launch date (UTC)
2018-12-03 (8 years ago)
Launch vehicle
FALCON 9
Launch site
Air Force Western Test Range (AFWTR)
Object type
Payload
Rocket body
Debris
Shape & HBR
Box, 0.1 m
Radar Cross Section
0.015 m², Medium (>0.1 m² and < 1m²)

Expand to show TLE details & history
Last TLE update: 1 day ago

TLE from 1 day ago
0 SPAWAR-CAL-O
1 43766U 18099J   26219.14007037  .00010943  00000-0  30449-3 0  9995
2 43766  97.4292 283.6011 0009376 108.2186 252.0079 15.36962190421344
Epoch: 2026-08-07T03:21Z
TLE epoch observation values (Epoch: 2026-08-07T03:21:42.079Z)
Latitude
-0.00011°
Longitude
-82.49426°
Altitude
460.196 km
Speed
7.635 km/s
True Right ascension
18h 54m 24s
True Declination
0° 00' 00"
Sunlit
Object was in full shadow at epoch
Visualization orbit readout
Latitude
Unknown
Longitude
Unknown
Altitude
Unknown
Speed
Unknown
Apparent Right ascension
Unknown
Apparent Declination
Unknown
Sunlit
N/A
Visualization observer readout
Local Sidereal Time
00:34:38
Azimuth
Unknown
Elevation
Unknown
Doppler factor
Unknown
Orbital elements
Apogee altitude
458.447 km
Perigee altitude
445.639 km
Semi-major axis
6,830.18 km
Eccentricity
0.00094
Inclination
97.4292°
RAAN
283.6011°
Arg. of periapsis
108.2186°
True anomaly
251.90575°
Mean anomaly
252.0079°
Eccentric anomaly
251.95682°
Mean motion
3.84499 °/min
Orbital period
93.63 mins
BSTAR
0.00030449
Loading maneuver chart data...
Computing Atmospheric mass density...
Loading historical data...
Loading historical data...
Loading historical data...
Loading historical data...
Loading historical data...
Loading historical data...
Loading historical data...

Documentation

Showing up to 5 results
|